Regional Weather Roundup
Issued by NWS Cleveland, OH

Home | Current Version | Previous Version | Text Only | Print | Product List | Glossary On
Versions: 1 2 3 4 5 6 7 8 9 10 11 12 13 14 15 16 17 18 19 20 21 22 23 24 25 26 27 28 29 30 31 32 33 34 35 36 37 38 39 40 41 42 43 44 45 46 47 48 49 50
000
ASUS41 KCLE 290710
RWRCLE
OHIO REGIONAL WEATHER ROUNDUP
NATIONAL WEATHER SERVICE CLEVELAND, OH
300 AM EDT FRI MAY 29 2015

NOTE: "FAIR" INDICATES FEW OR NO CLOUDS BELOW 12,000 FEET WITH NO
SIGNIFICANT WEATHER AND/OR OBSTRUCTIONS TO VISIBILITY.

OHZ001>008-015>018-024>027-034-035-043-044-290800-
   NORTHWEST OHIO

CITY           SKY/WX    TMP DP  RH WIND       PRES   REMARKS
DEFIANCE       PTCLDY    64  58  80 E5        30.14S
FINDLAY        CLEAR     66  60  81 SE6       30.14F
TOLEDO EXPRESS PTCLDY    65  55  70 E3        30.15F
TOLEDO EXEC    PTCLDY    62  55  77 E7        30.16F
LIMA           CLEAR     68  61  78 SE6       30.15S
$$

OHZ009>014-019>023-028>033-038-089-290800-
   NORTHEAST OHIO

CITY           SKY/WX    TMP DP  RH WIND       PRES   REMARKS
CLE-HOPKINS    PTCLDY    63  56  78 CALM      30.20F
CLE-LAKEFRONT  CLEAR     67  54  63 SE3       30.17F
CUY CO. ARPT   NOT AVBL
LORAIN-ELYRIA  CLEAR     62  56  80 S3        30.18F
ASHTABULA      CLEAR     59  54  83 SE6       30.22F
AKRON-CANTON   CLEAR     66  53  63 E6        30.20F
WOOSTER        CLEAR     63  56  78 CALM      30.20F
MANSFIELD      PTCLDY    65  57  75 SE5       30.19F
YOUNGSTOWN     PTCLDY    59  55  87 E7        30.22F
$$

OHZ042-051>053-060>062-070>072-077>081-290800-
  SOUTHWEST OHIO

CITY           SKY/WX    TMP DP  RH WIND       PRES   REMARKS
CINC-COVINGTON LGT RAIN  69  65  86 S8        30.14S
CINC-LUNKEN    CLOUDY    67  66  97 CALM      30.13F
HAMILTON       CLOUDY    67  65  93 CALM      30.13F
DAYTON         MOCLDY    68  63  84 SE6       30.15S
WRIGHT-PAT AFB PTCLDY    66  63  90 NE2       30.13F
DAYTON GENERAL CLOUDY    70  64  81 CALM      30.13F
WILMINGTON     CLOUDY    69  63  81 E5        30.14F
$$

OHZ036-037-039>041-045>050-054>059-063>069-073>076-082>088-290800-
  CENTRAL AND SOUTHEAST OHIO

CITY           SKY/WX    TMP DP  RH WIND       PRES   REMARKS
COLUMBUS       PTCLDY    68  61  78 E5        30.15F
OSU AIRPORT    CLEAR     67  61  81 E6        30.15F
BOLTON FIELD   NOT AVBL
RICKENBACK AFB CLEAR     67  62  83 CALM      30.15S
NEWARK         CLEAR     62  60  93 CALM      30.16F
MARION         CLEAR     67  59  75 SE7       30.17F
LANCASTER      CLEAR     65  62  90 CALM      30.16F
ZANESVILLE     NOT AVBL
NEW PHILLY     CLEAR     62  58  86 CALM      30.19F FOG
$$


USA.gov is the U.S. government's official web portal to all federal, state and local government web resources and services.